• In Belarus
  • List of Countries
  • For 7 days
  • Water Temperature
  • Satellite Maps
  • Weather Map
  • Weather Widgets
  • user-avatar
    Login

    Hourly Weather Shusha

    Today, 19 March, Tuesday

    Time Temperature Precipitation Wind Pressure Humidity
    00:00 +2°C° 1.2 mm 2 mps 659 mmHg 91%
    01:00 +3°C° 1.1 mm 1 mps 659 mmHg 92%
    02:00 +3°C° 1.1 mm 1 mps 660 mmHg 92%
    03:00 +2°C° 0 mm 1 mps 659 mmHg 93%
    04:00 +2°C° 1.2 mm 1 mps 659 mmHg 93%
    05:00 +2°C° 1.2 mm 1 mps 659 mmHg 93%
    06:00 +2°C° 1.2 mm 1 mps 660 mmHg 93%
    07:00 +2°C° 1.3 mm 1 mps 660 mmHg 92%
    08:00 +2°C° 1.3 mm 1 mps 660 mmHg 91%
    09:00 +2°C° 0 mm 1 mps 660 mmHg 89%
    10:00 +2°C° 0.9 mm 1 mps 660 mmHg 88%
    11:00 +3°C° 0.9 mm 1 mps 660 mmHg 88%
    12:00 +2°C° 0.9 mm 2 mps 660 mmHg 87%
    13:00 +2°C° 0.6 mm 2 mps 660 mmHg 87%
    14:00 +2°C° 0.6 mm 2 mps 660 mmHg 87%
    15:00 +2°C° 0 mm 2 mps 660 mmHg 87%
    16:00 +2°C° 0.6 mm 2 mps 660 mmHg 89%
    17:00 +3°C° 0.6 mm 1 mps 660 mmHg 90%
    18:00 +3°C° 0.6 mm 1 mps 660 mmHg 92%
    19:00 +3°C° 0.6 mm 1 mps 660 mmHg 92%
    20:00 +2°C° 0.6 mm 1 mps 660 mmHg 92%
    21:00 +1°C° 0.6 mm 0 mps 661 mmHg 93%
    22:00 +1°C° 0.4 mm 0 mps 660 mmHg 92%
    23:00 +1°C° 0.4 mm 0 mps 660 mmHg 92%

    Tomorrow, 20 March, Wednesday

    Time Temperature Precipitation Wind Pressure Humidity
    00:00 +1°C° 0.4 mm 0 mps 660 mmHg 91%
    01:00 +2°C° 0.3 mm 1 mps 660 mmHg 90%
    02:00 +1°C° 0.3 mm 1 mps 660 mmHg 89%
    03:00 +1°C° 0.3 mm 1 mps 660 mmHg 88%
    04:00 +1°C° 0.3 mm 1 mps 660 mmHg 87%
    05:00 +1°C° 0.3 mm 1 mps 660 mmHg 86%
    06:00 0°C° 0.3 mm 0 mps 660 mmHg 85%
    07:00 +1°C° 0.4 mm 0 mps 660 mmHg 84%
    08:00 +1°C° 0.4 mm 0 mps 660 mmHg 83%
    09:00 +3°C° 0.4 mm 1 mps 660 mmHg 83%
    10:00 +4°C° 0.4 mm 1 mps 660 mmHg 82%
    11:00 +4°C° 0.4 mm 1 mps 660 mmHg 82%
    12:00 +3°C° 0.4 mm 2 mps 660 mmHg 82%
    13:00 +4°C° 0.4 mm 2 mps 660 mmHg 83%
    14:00 +4°C° 0.4 mm 2 mps 659 mmHg 83%
    15:00 +4°C° 0.4 mm 2 mps 659 mmHg 83%
    16:00 +3°C° 0.3 mm 2 mps 659 mmHg 85%
    17:00 +4°C° 0.3 mm 1 mps 659 mmHg 87%
    18:00 +4°C° 0.3 mm 1 mps 659 mmHg 89%
    19:00 +3°C° 0.2 mm 1 mps 659 mmHg 90%
    20:00 +3°C° 0.2 mm 1 mps 659 mmHg 91%
    21:00 +2°C° 0.2 mm 0 mps 660 mmHg 93%
    22:00 +1°C° 0.1 mm 0 mps 659 mmHg 91%
    23:00 +1°C° 0.1 mm 0 mps 659 mmHg 89%

    Day after tomorrow, 21 March, Thursday

    Time Temperature Precipitation Wind Pressure Humidity
    00:00 +1°C° 0.1 mm 0 mps 659 mmHg 88%
    01:00 +1°C° 0.1 mm 0 mps 659 mmHg 88%
    02:00 +1°C° 0.1 mm 0 mps 659 mmHg 88%
    03:00 0°C° 0.1 mm 0 mps 659 mmHg 87%
    04:00 0°C° 0.1 mm 0 mps 659 mmHg 87%
    05:00 0°C° 0.1 mm 0 mps 659 mmHg 86%
    06:00 +1°C° 0.1 mm 1 mps 659 mmHg 86%
    07:00 +2°C° 0 mm 1 mps 660 mmHg 83%
    08:00 +3°C° 0 mm 1 mps 660 mmHg 81%
    09:00 +5°C° 0 mm 1 mps 661 mmHg 78%
    10:00 +5°C° 0 mm 1 mps 660 mmHg 77%
    11:00 +5°C° 0 mm 2 mps 660 mmHg 76%
    12:00 +6°C° 0 mm 2 mps 660 mmHg 75%
    13:00 +6°C° 0 mm 2 mps 660 mmHg 75%
    14:00 +6°C° 0 mm 2 mps 660 mmHg 75%
    15:00 +6°C° 0 mm 2 mps 659 mmHg 75%
    16:00 +6°C° 0 mm 2 mps 659 mmHg 77%
    17:00 +5°C° 0 mm 2 mps 659 mmHg 80%
    18:00 +4°C° 0 mm 2 mps 659 mmHg 83%
    19:00 +5°C° 0 mm 1 mps 659 mmHg 84%
    20:00 +4°C° 0 mm 1 mps 660 mmHg 86%
    21:00 +4°C° 0 mm 1 mps 660 mmHg 88%
    22:00 +4°C° 0 mm 1 mps 660 mmHg 87%
    23:00 +4°C° 0 mm 1 mps 660 mmHg 86%

    22 March, Friday

    Time Temperature Precipitation Wind Pressure Humidity
    00:00 +2°C° 0 mm 0 mps 660 mmHg 85%
    01:00 +3°C° 0 mm 1 mps 660 mmHg 84%
    02:00 +3°C° 0 mm 1 mps 660 mmHg 84%
    03:00 +3°C° 0 mm 1 mps 659 mmHg 83%
    04:00 +3°C° 0 mm 1 mps 660 mmHg 84%
    05:00 +2°C° 0 mm 0 mps 660 mmHg 84%
    06:00 +1°C° 0 mm 0 mps 660 mmHg 85%
    07:00 +3°C° 0.2 mm 1 mps 660 mmHg 84%
    08:00 +4°C° 0.2 mm 1 mps 660 mmHg 83%
    09:00 +5°C° 0.2 mm 1 mps 661 mmHg 82%
    10:00 +6°C° 0.4 mm 1 mps 660 mmHg 81%
    11:00 +5°C° 0.4 mm 2 mps 660 mmHg 81%
    12:00 +5°C° 0.4 mm 2 mps 660 mmHg 80%
    13:00 +5°C° 0.6 mm 2 mps 659 mmHg 79%
    14:00 +5°C° 0.6 mm 2 mps 659 mmHg 79%
    15:00 +5°C° 0.6 mm 2 mps 659 mmHg 78%
    16:00 +5°C° 0.9 mm 2 mps 659 mmHg 80%
    17:00 +6°C° 0.9 mm 1 mps 659 mmHg 82%
    18:00 +5°C° 0.9 mm 1 mps 659 mmHg 84%
    19:00 +5°C° 0.8 mm 1 mps 659 mmHg 86%
    20:00 +5°C° 0.8 mm 1 mps 660 mmHg 87%
    21:00 +5°C° 0.8 mm 1 mps 661 mmHg 88%
    22:00 +3°C° 0.4 mm 0 mps 661 mmHg 87%
    23:00 +3°C° 0.4 mm 0 mps 661 mmHg 86%

    23 March, Saturday

    Time Temperature Precipitation Wind Pressure Humidity
    00:00 +3°C° 0.4 mm 0 mps 661 mmHg 85%
    01:00 +3°C° 0.2 mm 0 mps 661 mmHg 87%
    02:00 +2°C° 0.2 mm 0 mps 661 mmHg 90%
    03:00 +1°C° 0.2 mm 0 mps 660 mmHg 92%
    04:00 +1°C° 0.1 mm 0 mps 660 mmHg 92%
    05:00 +1°C° 0.1 mm 0 mps 660 mmHg 93%
    06:00 +1°C° 0.1 mm 0 mps 660 mmHg 93%
    07:00 +3°C° 0 mm 1 mps 660 mmHg 90%
    08:00 +4°C° 0 mm 1 mps 660 mmHg 87%
    09:00 +5°C° 0 mm 1 mps 659 mmHg 84%
    10:00 +5°C° 0 mm 1 mps 659 mmHg 82%
    11:00 +5°C° 0 mm 2 mps 658 mmHg 79%
    12:00 +5°C° 0 mm 2 mps 657 mmHg 77%
    13:00 +6°C° 0 mm 2 mps 657 mmHg 75%
    14:00 +6°C° 0 mm 2 mps 656 mmHg 73%
    15:00 +7°C° 0 mm 2 mps 655 mmHg 71%
    16:00 +6°C° 0 mm 2 mps 655 mmHg 74%
    17:00 +5°C° 0 mm 2 mps 655 mmHg 77%
    18:00 +5°C° 0 mm 1 mps 655 mmHg 80%
    19:00 +5°C° 0 mm 1 mps 655 mmHg 81%
    20:00 +4°C° 0 mm 1 mps 655 mmHg 82%
    21:00 +4°C° 0 mm 1 mps 656 mmHg 83%
    22:00 +4°C° 0.1 mm 1 mps 655 mmHg 83%
    23:00 +4°C° 0.1 mm 1 mps 655 mmHg 84%

    24 March, Sunday

    Time Temperature Precipitation Wind Pressure Humidity
    00:00 +2°C° 0.1 mm 2 mps 655 mmHg 84%
    01:00 +2°C° 0.7 mm 2 mps 655 mmHg 86%
    02:00 +1°C° 0.7 mm 2 mps 655 mmHg 89%
    03:00 +1°C° 0.7 mm 2 mps 655 mmHg 92%
    04:00 -1°C° 1.8 mm 2 mps 655 mmHg 92%
    05:00 -1°C° 1.8 mm 2 mps 655 mmHg 93%
    06:00 +1°C° 1.8 mm 1 mps 656 mmHg 94%
    07:00 0°C° 1.8 mm 1 mps 656 mmHg 95%
    08:00 0°C° 1.8 mm 1 mps 657 mmHg 96%
    09:00 -2°C° 1.8 mm 2 mps 657 mmHg 96%
    10:00 -1°C° 1 mm 2 mps 658 mmHg 95%
    11:00 -1°C° 1 mm 2 mps 658 mmHg 94%
    12:00 -1°C° 1 mm 2 mps 658 mmHg 92%
    13:00 -1°C° 0.5 mm 2 mps 658 mmHg 91%
    14:00 +1°C° 0.5 mm 2 mps 658 mmHg 90%
    15:00 +1°C° 0.5 mm 2 mps 658 mmHg 89%
    16:00 -1°C° 0.1 mm 2 mps 658 mmHg 89%
    17:00 -1°C° 0.1 mm 2 mps 659 mmHg 90%
    18:00 0°C° 0.1 mm 1 mps 659 mmHg 90%
    19:00 0°C° 0.1 mm 1 mps 659 mmHg 89%
    20:00 -1°C° 0.1 mm 1 mps 660 mmHg 88%
    21:00 -1°C° 0.1 mm 1 mps 660 mmHg 87%
    22:00 -2°C° 0 mm 1 mps 660 mmHg 86%
    23:00 -2°C° 0 mm 1 mps 660 mmHg 85%
    Show more